Location: Altleiningen
(49.5078°N, 8.0741°E)
Time: 04:39:35
(UTC+00:00)

Cosmos 1666 Rocket - Pass Details

Date: 14 June 2025
Orbit: 598 x 625 km, 82.5° (Epoch: 12 July)

Event Time Altitude Azimuth Distance (km) Brightness Sun altitude
Rises 20:42:53 0° 346° (NNW) 2,923 8.4 -8.5°
Reaches altitude 10° 20:45:09 10° 341° (NNW) 2,012 7.6 -8.7°
Maximum altitude 20:49:29 52° 266° (W) 783 4.3 -9.1°
Drops below altitude 10° 20:53:47 10° 190° (S) 1,994 5.8 -9.5°
Enters shadow 20:54:56 - 187° (S) 2,450 6.2 -9.6°
